Weather History for KLVJ - April, 2013

Change the Weather History Date:

Thursday, April 18, 2013

  Actual Average (KHOU) Record (KHOU)
Temperature  
Mean Temperature 64 °F 70 °F  
Max Temperature 75 °F 80 °F 94 °F (1987)
Min Temperature 54 °F 60 °F 42 °F (1999)
Degree Days  
Heating Degree Days 0 1  
Month to date heating degree days 30  
Since 1 July heating degree days 1359  
Cooling Degree Days 0 6  
Month to date cooling degree days 87  
Year to date cooling degree days 196  
Growing Degree Days 14 (Base 50)    
Moisture  
Dew Point 60 °F    
Average Humidity 84    
Maximum Humidity 94    
Minimum Humidity 62    
Precipitation  
Precipitation 0.15 in 0.11 in 8.16 in (1976)
Month to date precipitation 1.85  
Year to date precipitation 11.84  
Sea Level Pressure  
Sea Level Pressure 29.82 in    
Wind  
Wind Speed 13 mph (NNW)    
Max Wind Speed 21 mph    
Max Gust Speed 31 mph    
Visibility 10 miles    
Events Rain    
T = Trace of Precipitation, MM = Missing Value Source: NWS Daily Summary

Daily Weather History Graph

Daily Weather History Graph

Search for Another Location

Airport or City:

Trip Planner

Search our weather history database for the weather conditions in past years. The results will help you decide how hot, cold, wet, or windy it might be!

Date:

Astronomy

Apr. 18, 2013 Rise Set
Actual Time 6:51 AM CDT 7:49 PM CDT
Civil Twilight 6:26 AM CDT 8:14 PM CDT
Nautical Twilight 5:57 AM CDT 8:43 PM CDT
Astronomical Twilight 5:27 AM CDT 9:13 PM CDT
Moon 1:08 PM CDT (4/18) 1:59 AM CDT (4/18)
Length of Visible Light 13h 47m
Length of Day
12h 58m
First Quarter, 52% of the Moon is Illuminated
Apr 18
First Quarter
Apr 25
Full
May 2
Last Quarter
May 9
New
May 17
First Quarter

Hourly Weather History & Observations

Time (CDT) Temp. Dew Point Humidity Pressure Visibility Wind Dir Wind Speed Gust Speed Precip Events Conditions
12:53 AM 73.0 °F 69.1 °F 87% 29.82 in 10.0 mi SSE 15.0 mph 24.2 mph N/A   Overcast
1:53 AM 73.0 °F 69.1 °F 87% 29.80 in 10.0 mi SSE 12.7 mph 19.6 mph N/A   Overcast
2:53 AM 73.0 °F 69.1 °F 87% 29.76 in 10.0 mi SSE 12.7 mph 23.0 mph N/A   Overcast
3:53 AM 73.0 °F 69.1 °F 87% 29.75 in 10.0 mi SSE 11.5 mph 19.6 mph N/A   Overcast
4:53 AM 73.0 °F 69.1 °F 87% 29.74 in 10.0 mi SSE 12.7 mph 19.6 mph N/A   Overcast
5:53 AM 73.0 °F 69.1 °F 87% 29.74 in 10.0 mi SSE 12.7 mph 20.7 mph N/A   Overcast
6:53 AM 73.0 °F 69.1 °F 87% 29.75 in 10.0 mi SSE 10.4 mph 18.4 mph N/A   Overcast
7:53 AM 73.0 °F 69.1 °F 87% 29.76 in 10.0 mi SSE 11.5 mph - N/A   Overcast
8:53 AM 73.9 °F 69.1 °F 85% 29.75 in 10.0 mi SSE 12.7 mph - N/A   Overcast
9:05 AM 73.4 °F 69.8 °F 88% 29.75 in 10.0 mi SSE 12.7 mph - N/A   Overcast
9:53 AM 75.0 °F 69.1 °F 82% 29.75 in 10.0 mi South 12.7 mph - N/A   Overcast
10:53 AM 73.9 °F 70.0 °F 87% 29.75 in 10.0 mi South 11.5 mph 23.0 mph N/A   Overcast
11:53 AM 75.0 °F 70.0 °F 84% 29.78 in 10.0 mi SSW 6.9 mph - N/A   Overcast
12:29 PM 75.2 °F 69.8 °F 83% 29.77 in 10.0 mi South 6.9 mph - 0.00 in Rain Light Rain
12:53 PM 75.0 °F 71.1 °F 87% 29.75 in 10.0 mi South 6.9 mph - 0.00 in   Overcast
1:42 PM 66.2 °F 64.4 °F 94% 29.77 in 10.0 mi NW 18.4 mph 25.3 mph 0.09 in Rain Heavy Rain
1:53 PM 63.0 °F 60.1 °F 90% 29.78 in 10.0 mi NW 17.3 mph 29.9 mph 0.12 in Rain Light Rain
2:00 PM 62.6 °F 60.8 °F 94% 29.78 in 10.0 mi NW 16.1 mph 24.2 mph 0.00 in Rain Light Rain
2:40 PM 59.0 °F 55.4 °F 88% 29.80 in 10.0 mi NNW 20.7 mph 31.1 mph 0.00 in Rain Light Rain
2:53 PM 59.0 °F 55.9 °F 90% 29.81 in 10.0 mi North 12.7 mph 24.2 mph 0.01 in Rain Light Rain
3:50 PM 57.2 °F 55.4 °F 94% 29.81 in 10.0 mi North 9.2 mph - 0.01 in Rain Light Rain
3:53 PM 57.9 °F 55.9 °F 93% 29.81 in 10.0 mi North 9.2 mph - 0.01 in Rain Light Rain
4:10 PM 57.2 °F 53.6 °F 88% 29.82 in 10.0 mi North 16.1 mph 24.2 mph 0.00 in Rain Light Rain
4:53 PM 55.9 °F 52.0 °F 87% 29.83 in 10.0 mi North 15.0 mph - 0.01 in Rain Light Rain
5:53 PM 55.9 °F 52.0 °F 87% 29.86 in 10.0 mi NNW 12.7 mph - 0.00 in   Overcast
6:05 PM 55.4 °F 51.8 °F 88% 29.87 in 10.0 mi NNW 15.0 mph - N/A   Overcast
6:39 PM 55.4 °F 50.0 °F 82% 29.88 in 10.0 mi North 11.5 mph 17.3 mph N/A   Overcast
6:53 PM 55.0 °F 50.0 °F 83% 29.89 in 10.0 mi North 12.7 mph - N/A   Overcast
7:05 PM 55.4 °F 48.2 °F 77% 29.90 in 10.0 mi North 15.0 mph 23.0 mph N/A   Overcast
7:53 PM 55.0 °F 48.0 °F 77% 29.92 in 10.0 mi NNW 12.7 mph - N/A   Overcast
8:53 PM 54.0 °F 44.1 °F 69% 29.98 in 10.0 mi North 15.0 mph 23.0 mph N/A   Overcast
9:53 PM 54.0 °F 44.1 °F 69% 30.02 in 10.0 mi North 16.1 mph 23.0 mph N/A   Overcast
10:53 PM 54.0 °F 43.0 °F 66% 30.05 in 10.0 mi North 13.8 mph 24.2 mph N/A   Overcast
11:53 PM 54.0 °F 41.0 °F 62% 30.05 in 10.0 mi North 15.0 mph 24.2 mph N/A   Clear